| time (UTC) | temp F | wind direction | speed MPH | gust MPH | rain 1hr in | rain 24hr in | rain mn in | humidity % | barometer mb |
| 20260507040624 | 43 | 56 | 0.0 | 0.0 | 0.00 | 0.00 | 0.00 | 1 | 1015.0 |
| 20260507040122 | 43 | 56 | 0.0 | 0.0 | 0.00 | 0.00 | 0.00 | 1 | 1015.0 |
| 20260507035628 | 43 | 56 | 0.0 | 0.0 | 0.00 | 0.00 | 0.00 | 1 | 1015.0 |
| 20260507034904 | 43 | 56 | 0.0 | 0.0 | 0.00 | 0.00 | 0.00 | 1 | 1015.0 |
| 20260507034401 | 43 | 56 | 0.0 | 0.0 | 0.00 | 0.00 | 0.00 | 1 | 1014.9 |
| 20260507033900 | 43 | 56 | 0.0 | 0.0 | 0.00 | 0.00 | 0.00 | 1 | 1014.9 |
| 20260507033400 | 43 | 56 | 0.0 | 0.0 | 0.00 | 0.00 | 0.00 | 1 | 1014.9 |
| 20260507032901 | 43 | 56 | 0.0 | 0.0 | 0.00 | 0.00 | 0.00 | 1 | 1014.8 |
| 20260507032402 | 43 | 56 | 0.0 | 0.0 | 0.00 | 0.00 | 0.00 | 1 | 1014.7 |
| 20260507031856 | 43 | 56 | 0.0 | 0.0 | 0.00 | 0.00 | 0.00 | 1 | 1014.7 |
| 20260507031351 | 43 | 56 | 0.0 | 0.0 | 0.00 | 0.00 | 0.00 | 1 | 1014.8 |
| 20260507030844 | 43 | 56 | 0.0 | 0.0 | 0.00 | 0.00 | 0.00 | 1 | 1014.7 |
| 20260507030338 | 43 | 56 | 0.0 | 0.0 | 0.00 | 0.00 | 0.00 | 1 | 1014.7 |
| 20260507025831 | 43 | 56 | 0.0 | 0.0 | 0.00 | 0.00 | 0.00 | 1 | 1014.7 |
| 20260507025550 | 43 | 56 | 0.0 | 0.0 | 0.00 | 0.00 | 0.00 | 1 | 1014.7 |
| 20260507024819 | 43 | 56 | 0.0 | 0.0 | 0.00 | 0.00 | 0.00 | 1 | 1014.7 |
| 20260507024315 | 43 | 56 | 0.0 | 0.0 | 0.00 | 0.00 | 0.00 | 1 | 1014.7 |
| 20260507023810 | 43 | 56 | 0.0 | 0.0 | 0.00 | 0.00 | 0.00 | 1 | 1014.6 |
| 20260507023302 | 44 | 56 | 0.0 | 0.0 | 0.00 | 0.00 | 0.00 | 1 | 1014.6 |
| 20260507022757 | 44 | 56 | 0.0 | 0.0 | 0.00 | 0.00 | 0.00 | 1 | 1014.6 |
| 20260507022251 | 44 | 56 | 0.0 | 0.0 | 0.00 | 0.00 | 0.00 | 1 | 1014.6 |
| 20260507021746 | 44 | 56 | 0.0 | 0.0 | 0.00 | 0.00 | 0.00 | 1 | 1014.5 |
| 20260507021238 | 44 | 56 | 0.0 | 0.0 | 0.00 | 0.00 | 0.00 | 1 | 1014.4 |
| 20260507021000 | 44 | 56 | 0.0 | 0.0 | 0.00 | 0.00 | 0.00 | 1 | 1014.4 |
| 20260507020222 | 44 | 56 | 0.0 | 0.0 | 0.00 | 0.00 | 0.00 | 1 | 1014.4 |
| 20260507015719 | 44 | 56 | 0.0 | 0.0 | 0.00 | 0.00 | 0.00 | 1 | 1014.4 |
| 20260507015429 | 44 | 56 | 0.0 | 0.0 | 0.00 | 0.00 | 0.00 | 1 | 1014.4 |
| 20260507014705 | 44 | 56 | 0.0 | 0.0 | 0.00 | 0.00 | 0.00 | 1 | 1014.3 |
| 20260507014420 | 45 | 56 | 0.0 | 0.0 | 0.00 | 0.00 | 0.00 | 1 | 1014.2 |
| 20260507013655 | 45 | 56 | 0.0 | 0.0 | 0.00 | 0.00 | 0.00 | 1 | 1014.2 |
| 20260507013147 | 45 | 56 | 0.0 | 0.0 | 0.00 | 0.00 | 0.00 | 1 | 1014.2 |
| 20260507012640 | 45 | 56 | 0.0 | 1.0 | 0.00 | 0.00 | 0.00 | 1 | 1014.2 |
| 20260507012136 | 45 | 56 | 0.0 | 1.0 | 0.00 | 0.00 | 0.00 | 1 | 1014.2 |
| 20260507011629 | 45 | 56 | 0.0 | 1.0 | 0.00 | 0.00 | 0.00 | 1 | 1014.2 |
| 20260507011121 | 46 | 56 | 0.0 | 1.0 | 0.00 | 0.00 | 0.00 | 1 | 1014.2 |
| 20260507010616 | 46 | 56 | 0.0 | 0.0 | 0.00 | 0.00 | 0.00 | 1 | 1014.2 |
| 20260507010341 | 46 | 56 | 0.0 | 1.0 | 0.00 | 0.00 | 0.00 | 1 | 1014.2 |
| 20260507005605 | 46 | 56 | 0.0 | 1.0 | 0.00 | 0.00 | 0.00 | 1 | 1014.2 |
| 20260507005058 | 46 | 56 | 0.0 | 0.0 | 0.00 | 0.00 | 0.00 | 1 | 1014.2 |
| 20260507004554 | 47 | 56 | 0.0 | 0.0 | 0.00 | 0.00 | 0.00 | 1 | 1014.1 |
| 20260507004046 | 47 | 56 | 0.0 | 0.0 | 0.00 | 0.00 | 0.00 | 1 | 1014.1 |
| 20260507003541 | 47 | 56 | 0.0 | 0.0 | 0.00 | 0.00 | 0.00 | 1 | 1014.1 |
| 20260507003034 | 47 | 56 | 0.0 | 1.0 | 0.00 | 0.00 | 0.00 | 1 | 1014.1 |
| 20260507002528 | 47 | 56 | 0.0 | 4.0 | 0.00 | 0.00 | 0.00 | 1 | 1014.1 |
| 20260507002023 | 47 | 53 | 0.0 | 4.0 | 0.00 | 0.00 | 0.00 | 1 | 1014.1 |
| 20260507001519 | 47 | 85 | 0.0 | 0.0 | 0.00 | 0.00 | 0.00 | 1 | 1014.0 |
| 20260507001012 | 48 | 28 | 0.0 | 2.0 | 0.00 | 0.00 | 0.00 | 3 | 1014.0 |
| 20260507000501 | 48 | 30 | 0.0 | 2.0 | 0.00 | 0.00 | 0.00 | 7 | 1014.0 |
| 20260507000445 | 48 | 56 | 0.0 | 4.0 | 0.00 | 0.00 | 0.00 | 9 | 1014.1 |
| 20260506235716 | 48 | 133 | 0.0 | 4.0 | 0.00 | 0.00 | 0.00 | 12 | 1014.1 |
| 20260506234943 | 48 | 65 | 1.0 | 5.0 | 0.00 | 0.00 | 0.00 | 13 | 1014.1 |
| 20260506234435 | 48 | 61 | 2.0 | 9.0 | 0.00 | 0.00 | 0.00 | 13 | 1014.1 |
| 20260506233934 | 48 | 80 | 2.0 | 9.0 | 0.00 | 0.00 | 0.00 | 14 | 1014.1 |
| 20260506233424 | 48 | 73 | 2.0 | 7.0 | 0.00 | 0.00 | 0.00 | 13 | 1014.1 |
| 20260506232918 | 48 | 107 | 2.0 | 5.0 | 0.00 | 0.00 | 0.00 | 13 | 1014.1 |
| 20260506232630 | 48 | 138 | 1.0 | 7.0 | 0.00 | 0.00 | 0.00 | 13 | 1014.1 |
| 20260506231907 | 48 | 42 | 1.0 | 7.0 | 0.00 | 0.00 | 0.00 | 13 | 1014.0 |
| 20260506231401 | 48 | 252 | 1.0 | 9.0 | 0.00 | 0.00 | 0.00 | 13 | 1014.0 |
| 20260506230855 | 48 | 38 | 1.0 | 9.0 | 0.00 | 0.00 | 0.00 | 12 | 1014.1 |
| 20260506230353 | 48 | 108 | 2.0 | 10.0 | 0.00 | 0.00 | 0.00 | 10 | 1014.0 |
| 20260506230108 | 48 | 48 | 1.0 | 10.0 | 0.00 | 0.00 | 0.00 | 9 | 1014.0 |
| 20260506225337 | 48 | 90 | 1.0 | 7.0 | 0.00 | 0.00 | 0.00 | 7 | 1014.0 |
| 20260506224832 | 49 | 90 | 1.0 | 6.0 | 0.00 | 0.00 | 0.00 | 3 | 1014.0 |
| 20260506224324 | 49 | 82 | 1.0 | 7.0 | 0.00 | 0.00 | 0.00 | 3 | 1014.0 |
| 20260506223817 | 49 | 8 | 1.0 | 7.0 | 0.00 | 0.00 | 0.00 | 4 | 1013.9 |
| 20260506223312 | 49 | 127 | 2.0 | 6.0 | 0.00 | 0.00 | 0.00 | 4 | 1013.9 |
| 20260506223033 | 49 | 81 | 2.0 | 6.0 | 0.00 | 0.00 | 0.00 | 5 | 1013.8 |
| 20260506222301 | 49 | 96 | 2.0 | 6.0 | 0.00 | 0.00 | 0.00 | 3 | 1013.8 |
| 20260506221757 | 49 | 30 | 1.0 | 5.0 | 0.00 | 0.00 | 0.00 | 2 | 1013.9 |
| 20260506221250 | 49 | 115 | 1.0 | 6.0 | 0.00 | 0.00 | 0.00 | 1 | 1013.8 |
| 20260506220743 | 49 | 118 | 1.0 | 6.0 | 0.00 | 0.00 | 0.00 | 2 | 1013.8 |
| 20260506220236 | 49 | 72 | 1.0 | 5.0 | 0.00 | 0.00 | 0.00 | 2 | 1013.8 |
| 20260506215730 | 50 | 140 | 1.0 | 4.0 | 0.00 | 0.00 | 0.00 | 5 | 1013.7 |
| 20260506215224 | 50 | 96 | 1.0 | 5.0 | 0.00 | 0.00 | 0.00 | 9 | 1013.7 |
| 20260506214941 | 50 | 93 | 1.0 | 5.0 | 0.00 | 0.00 | 0.00 | 11 | 1013.6 |
| 20260506214211 | 50 | 64 | 2.0 | 7.0 | 0.00 | 0.00 | 0.00 | 14 | 1013.7 |
| 20260506213708 | 50 | 34 | 1.0 | 7.0 | 0.00 | 0.00 | 0.00 | 17 | 1013.6 |
| 20260506213427 | 51 | 156 | 1.0 | 6.0 | 0.00 | 0.00 | 0.00 | 18 | 1013.5 |
| 20260506212917 | 51 | 37 | 2.0 | 5.0 | 0.00 | 0.00 | 0.00 | 20 | 1013.5 |
| 20260506212148 | 51 | 45 | 1.0 | 6.0 | 0.00 | 0.00 | 0.00 | 21 | 1013.5 |
| 20260506211640 | 51 | 57 | 1.0 | 8.0 | 0.00 | 0.00 | 0.00 | 26 | 1013.5 |
| 20260506211134 | 52 | 25 | 1.0 | 8.0 | 0.00 | 0.00 | 0.00 | 31 | 1013.4 |
| 20260506210849 | 52 | 106 | 1.0 | 8.0 | 0.00 | 0.00 | 0.00 | 33 | 1013.3 |
| 20260506210352 | 52 | 41 | 1.0 | 8.0 | 0.00 | 0.00 | 0.00 | 36 | 1013.3 |
| 20260506205617 | 52 | 257 | 1.0 | 7.0 | 0.00 | 0.00 | 0.00 | 39 | 1013.2 |
| 20260506205121 | 52 | 271 | 2.0 | 9.0 | 0.00 | 0.00 | 0.00 | 42 | 1013.2 |
| 20260506204834 | 53 | 22 | 1.0 | 9.0 | 0.00 | 0.00 | 0.00 | 46 | 1013.2 |
| 20260506204059 | 53 | 70 | 1.0 | 5.0 | 0.00 | 0.00 | 0.00 | 48 | 1013.2 |
| 20260506203552 | 53 | 265 | 0.0 | 4.0 | 0.00 | 0.00 | 0.00 | 51 | 1013.2 |
| 20260506203049 | 53 | 238 | 0.0 | 4.0 | 0.00 | 0.00 | 0.00 | 55 | 1013.1 |
| 20260506202542 | 53 | 19 | 1.0 | 5.0 | 0.00 | 0.00 | 0.00 | 56 | 1013.1 |
| 20260506202037 | 53 | 223 | 1.0 | 5.0 | 0.00 | 0.00 | 0.00 | 57 | 1013.1 |
| 20260506201805 | 53 | 27 | 1.0 | 7.0 | 0.00 | 0.00 | 0.00 | 57 | 1013.0 |
| 20260506201023 | 53 | 104 | 1.0 | 7.0 | 0.00 | 0.00 | 0.00 | 56 | 1012.9 |
| 20260506200519 | 53 | 358 | 0.0 | 3.0 | 0.00 | 0.00 | 0.00 | 53 | 1012.9 |
| 20260506200239 | 53 | 58 | 0.0 | 3.0 | 0.00 | 0.00 | 0.00 | 54 | 1012.8 |
| 20260506195508 | 53 | 14 | 1.0 | 3.0 | 0.00 | 0.00 | 0.00 | 55 | 1012.8 |
| 20260506195000 | 54 | 158 | 1.0 | 3.0 | 0.00 | 0.00 | 0.00 | 55 | 1012.7 |
| 20260506194453 | 54 | 218 | 0.0 | 3.0 | 0.00 | 0.00 | 0.00 | 57 | 1012.7 |
| 20260506193947 | 54 | 231 | 1.0 | 5.0 | 0.00 | 0.00 | 0.00 | 58 | 1012.6 |
| 20260506193445 | 54 | 32 | 1.0 | 5.0 | 0.00 | 0.00 | 0.00 | 59 | 1012.6 |
| 20260506192938 | 54 | 35 | 0.0 | 3.0 | 0.00 | 0.00 | 0.00 | 59 | 1012.5 |
| 20260506192433 | 54 | 33 | 1.0 | 3.0 | 0.00 | 0.00 | 0.00 | 60 | 1012.4 |
| 20260506191928 | 54 | 31 | 0.0 | 3.0 | 0.00 | 0.00 | 0.00 | 60 | 1012.4 |
| 20260506191429 | 55 | 19 | 0.0 | 5.0 | 0.00 | 0.00 | 0.00 | 61 | 1012.2 |
| 20260506190928 | 55 | 295 | 1.0 | 10.0 | 0.00 | 0.00 | 0.00 | 61 | 1012.1 |
| 20260506190429 | 55 | 169 | 1.0 | 10.0 | 0.00 | 0.00 | 0.00 | 60 | 1012.0 |
| 20260506185928 | 55 | 243 | 1.0 | 7.0 | 0.00 | 0.00 | 0.00 | 60 | 1012.0 |
| 20260506185428 | 55 | 114 | 1.0 | 7.0 | 0.00 | 0.00 | 0.00 | 60 | 1011.9 |
| 20260506184929 | 55 | 109 | 1.0 | 5.0 | 0.00 | 0.00 | 0.00 | 60 | 1011.9 |
| 20260506184425 | 55 | 54 | 1.0 | 5.0 | 0.00 | 0.00 | 0.00 | 60 | 1011.8 |
| 20260506184156 | 56 | 37 | 1.0 | 5.0 | 0.00 | 0.00 | 0.00 | 60 | 1011.8 |
| 20260506183654 | 56 | 260 | 1.0 | 4.0 | 0.00 | 0.00 | 0.00 | 60 | 1011.8 |
| 20260506183144 | 56 | 124 | 1.0 | 7.0 | 0.00 | 0.00 | 0.00 | 60 | 1011.7 |
| 20260506182429 | 56 | 103 | 2.0 | 10.0 | 0.00 | 0.00 | 0.00 | 59 | 1011.6 |
| 20260506181927 | 56 | 188 | 2.0 | 10.0 | 0.00 | 0.00 | 0.00 | 59 | 1011.6 |
| 20260506181426 | 57 | 68 | 1.0 | 9.0 | 0.00 | 0.00 | 0.00 | 59 | 1011.6 |
| 20260506180927 | 57 | 51 | 2.0 | 7.0 | 0.00 | 0.00 | 0.00 | 59 | 1011.5 |
| 20260506180655 | 57 | 127 | 2.0 | 7.0 | 0.00 | 0.00 | 0.00 | 59 | 1011.5 |
| 20260506175925 | 57 | 187 | 1.0 | 6.0 | 0.00 | 0.00 | 0.00 | 60 | 1011.3 |
| 20260506175656 | 57 | 186 | 1.0 | 6.0 | 0.00 | 0.00 | 0.00 | 60 | 1011.4 |
| 20260506174933 | 57 | 96 | 1.0 | 7.0 | 0.00 | 0.00 | 0.00 | 60 | 1011.3 |
| 20260506174423 | 57 | 40 | 1.0 | 7.0 | 0.00 | 0.00 | 0.00 | 60 | 1011.2 |
| 20260506173925 | 57 | 120 | 1.0 | 5.0 | 0.00 | 0.00 | 0.00 | 60 | 1011.1 |
| 20260506173425 | 57 | 324 | 1.0 | 6.0 | 0.00 | 0.00 | 0.00 | 60 | 1011.1 |
| 20260506172927 | 57 | 106 | 2.0 | 7.0 | 0.00 | 0.00 | 0.00 | 60 | 1011.0 |
| 20260506172422 | 57 | 110 | 2.0 | 7.0 | 0.00 | 0.00 | 0.00 | 60 | 1011.0 |
| 20260506171923 | 57 | 241 | 2.0 | 9.0 | 0.00 | 0.00 | 0.00 | 60 | 1011.0 |
| 20260506171422 | 57 | 65 | 2.0 | 9.0 | 0.00 | 0.00 | 0.00 | 60 | 1010.9 |
| 20260506170919 | 57 | 14 | 2.0 | 7.0 | 0.00 | 0.00 | 0.00 | 59 | 1010.9 |
| 20260506170904 | 57 | 317 | 1.0 | 7.0 | 0.00 | 0.00 | 0.00 | 60 | 1010.9 |
| 20260506165920 | 57 | 46 | 2.0 | 8.0 | 0.00 | 0.00 | 0.00 | 60 | 1010.8 |
| 20260506165425 | 57 | 54 | 2.0 | 13.0 | 0.00 | 0.00 | 0.00 | 60 | 1010.7 |
| 20260506165415 | 58 | 243 | 2.0 | 13.0 | 0.00 | 0.00 | 0.00 | 60 | 1010.7 |
| 20260506164421 | 58 | 94 | 2.0 | 7.0 | 0.00 | 0.00 | 0.00 | 60 | 1010.7 |
| 20260506163919 | 58 | 356 | 2.0 | 7.0 | 0.00 | 0.00 | 0.00 | 60 | 1010.8 |
| 20260506163421 | 58 | 27 | 2.0 | 9.0 | 0.00 | 0.00 | 0.00 | 59 | 1010.7 |
| 20260506162920 | 58 | 219 | 2.0 | 9.0 | 0.00 | 0.00 | 0.00 | 59 | 1010.6 |
| 20260506162421 | 58 | 32 | 2.0 | 7.0 | 0.00 | 0.00 | 0.00 | 59 | 1010.6 |
| 20260506161921 | 58 | 82 | 2.0 | 10.0 | 0.00 | 0.00 | 0.00 | 60 | 1010.6 |
| 20260506161657 | 57 | 74 | 2.0 | 10.0 | 0.00 | 0.00 | 0.00 | 60 | 1010.6 |
| 20260506160920 | 57 | 47 | 2.0 | 8.0 | 0.00 | 0.00 | 0.00 | 60 | 1010.6 |
| 20260506160420 | 57 | 311 | 2.0 | 11.0 | 0.00 | 0.00 | 0.00 | 60 | 1010.6 |
| 20260506155924 | 57 | 245 | 2.0 | 12.0 | 0.00 | 0.00 | 0.00 | 59 | 1010.6 |
| 20260506155419 | 57 | 77 | 2.0 | 12.0 | 0.00 | 0.00 | 0.00 | 59 | 1010.7 |
| 20260506154922 | 57 | 106 | 1.0 | 5.0 | 0.00 | 0.00 | 0.00 | 57 | 1010.7 |
| 20260506154420 | 57 | 345 | 1.0 | 5.0 | 0.00 | 0.00 | 0.00 | 56 | 1010.7 |
| 20260506153918 | 57 | 117 | 1.0 | 5.0 | 0.00 | 0.00 | 0.00 | 56 | 1010.7 |
| 20260506153419 | 57 | 111 | 2.0 | 6.0 | 0.00 | 0.00 | 0.00 | 56 | 1010.7 |
| 20260506152916 | 57 | 110 | 2.0 | 6.0 | 0.00 | 0.00 | 0.00 | 56 | 1010.6 |
| 20260506152417 | 58 | 96 | 2.0 | 7.0 | 0.00 | 0.00 | 0.00 | 55 | 1010.6 |
| 20260506151917 | 58 | 37 | 2.0 | 7.0 | 0.00 | 0.00 | 0.00 | 56 | 1010.5 |
| 20260506151644 | 58 | 30 | 2.0 | 6.0 | 0.00 | 0.00 | 0.00 | 58 | 1010.5 |
| 20260506150935 | 58 | 95 | 3.0 | 12.0 | 0.00 | 0.00 | 0.00 | 53 | 1010.5 |
| 20260506150421 | 58 | 57 | 3.0 | 12.0 | 0.00 | 0.00 | 0.00 | 52 | 1010.5 |
| 20260506145918 | 58 | 32 | 2.0 | 9.0 | 0.00 | 0.00 | 0.00 | 52 | 1010.4 |
| 20260506145637 | 58 | 56 | 3.0 | 9.0 | 0.00 | 0.00 | 0.00 | 53 | 1010.5 |
| 20260506144919 | 58 | 136 | 3.0 | 10.0 | 0.00 | 0.00 | 0.00 | 56 | 1010.5 |
| 20260506144642 | 58 | 77 | 2.0 | 10.0 | 0.00 | 0.00 | 0.00 | 56 | 1010.5 |
| 20260506143918 | 58 | 80 | 2.0 | 7.0 | 0.00 | 0.00 | 0.00 | 55 | 1010.4 |
| 20260506143418 | 58 | 124 | 3.0 | 9.0 | 0.00 | 0.00 | 0.00 | 57 | 1010.4 |
| 20260506142919 | 58 | 94 | 3.0 | 9.0 | 0.00 | 0.00 | 0.00 | 56 | 1010.4 |
| 20260506142419 | 58 | 99 | 3.0 | 8.0 | 0.00 | 0.00 | 0.00 | 56 | 1010.4 |
| 20260506141917 | 59 | 100 | 3.0 | 7.0 | 0.00 | 0.00 | 0.00 | 55 | 1010.3 |
| 20260506141418 | 59 | 92 | 3.0 | 8.0 | 0.00 | 0.00 | 0.00 | 54 | 1010.4 |
| 20260506140918 | 59 | 18 | 2.0 | 8.0 | 0.00 | 0.00 | 0.00 | 52 | 1010.4 |
| 20260506140419 | 59 | 39 | 3.0 | 11.0 | 0.00 | 0.00 | 0.00 | 56 | 1010.4 |
| 20260506135913 | 60 | 51 | 3.0 | 11.0 | 0.00 | 0.00 | 0.00 | 51 | 1010.3 |
| 20260506135415 | 60 | 50 | 3.0 | 8.0 | 0.00 | 0.00 | 0.00 | 48 | 1010.3 |
| 20260506134917 | 60 | 139 | 3.0 | 10.0 | 0.00 | 0.00 | 0.00 | 49 | 1010.3 |
| 20260506134513 | 61 | 53 | 3.0 | 11.0 | 0.00 | 0.00 | 0.00 | 49 | 1010.3 |
| 20260506133410 | 61 | 127 | 4.0 | 9.0 | 0.00 | 0.00 | 0.00 | 48 | 1010.2 |
| 20260506132911 | 61 | 207 | 4.0 | 12.0 | 0.00 | 0.00 | 0.00 | 46 | 1010.3 |
| 20260506132633 | 61 | 109 | 4.0 | 12.0 | 0.00 | 0.00 | 0.00 | 46 | 1010.2 |
| 20260506131910 | 61 | 149 | 3.0 | 11.0 | 0.00 | 0.00 | 0.00 | 45 | 1010.2 |
| 20260506131410 | 62 | 333 | 3.0 | 12.0 | 0.00 | 0.00 | 0.00 | 44 | 1010.2 |
| 20260506130904 | 61 | 74 | 4.0 | 12.0 | 0.00 | 0.00 | 0.00 | 46 | 1010.1 |
| 20260506130403 | 60 | 100 | 4.0 | 11.0 | 0.00 | 0.00 | 0.00 | 43 | 1010.1 |
| 20260506125901 | 60 | 100 | 4.0 | 11.0 | 0.00 | 0.00 | 0.00 | 43 | 1010.2 |
| 20260506125402 | 60 | 30 | 4.0 | 12.0 | 0.00 | 0.00 | 0.00 | 44 | 1010.1 |
| 20260506124905 | 60 | 85 | 4.0 | 16.0 | 0.00 | 0.00 | 0.00 | 43 | 1010.2 |
| 20260506124403 | 60 | 120 | 4.0 | 16.0 | 0.00 | 0.00 | 0.00 | 44 | 1010.1 |
| 20260506123903 | 60 | 97 | 4.0 | 12.0 | 0.00 | 0.00 | 0.00 | 46 | 1010.1 |
| 20260506123402 | 60 | 8 | 4.0 | 11.0 | 0.00 | 0.00 | 0.00 | 47 | 1010.1 |
| 20260506122905 | 60 | 115 | 4.0 | 11.0 | 0.00 | 0.00 | 0.00 | 48 | 1010.0 |
| 20260506122414 | 60 | 27 | 4.0 | 11.0 | 0.00 | 0.00 | 0.00 | 48 | 1010.1 |
| 20260506121900 | 60 | 112 | 4.0 | 11.0 | 0.00 | 0.00 | 0.00 | 49 | 1010.1 |
| 20260506121400 | 60 | 101 | 4.0 | 12.0 | 0.00 | 0.00 | 0.00 | 50 | 1010.0 |
| 20260506120902 | 60 | 27 | 5.0 | 12.0 | 0.00 | 0.00 | 0.00 | 48 | 1010.0 |
| 20260506120654 | 60 | 89 | 5.0 | 13.0 | 0.00 | 0.00 | 0.00 | 48 | 1010.0 |
| 20260506120128 | 60 | 24 | 5.0 | 15.0 | 0.00 | 0.00 | 0.00 | 46 | 1010.0 |
| 20260506115406 | 60 | 195 | 5.0 | 15.0 | 0.00 | 0.00 | 0.00 | 46 | 1010.0 |
| 20260506114900 | 60 | 54 | 4.0 | 13.0 | 0.00 | 0.00 | 0.00 | 46 | 1010.1 |
| 20260506114359 | 60 | 66 | 3.0 | 9.0 | 0.00 | 0.00 | 0.00 | 48 | 1009.9 |
| 20260506113857 | 60 | 52 | 3.0 | 14.0 | 0.00 | 0.00 | 0.00 | 48 | 1010.0 |
| 20260506113356 | 60 | 17 | 5.0 | 14.0 | 0.00 | 0.00 | 0.00 | 47 | 1010.1 |
| 20260506113121 | 60 | 13 | 4.0 | 13.0 | 0.00 | 0.00 | 0.00 | 48 | 1010.1 |
| 20260506112357 | 60 | 65 | 3.0 | 11.0 | 0.00 | 0.00 | 0.00 | 47 | 1010.1 |
| 20260506111857 | 60 | 94 | 4.0 | 11.0 | 0.00 | 0.00 | 0.00 | 49 | 1010.0 |
| 20260506111352 | 60 | 49 | 4.0 | 11.0 | 0.00 | 0.00 | 0.00 | 50 | 1009.9 |
| 20260506110908 | 60 | 58 | 4.0 | 11.0 | 0.00 | 0.00 | 0.00 | 53 | 1009.9 |
| 20260506110354 | 60 | 52 | 4.0 | 11.0 | 0.00 | 0.00 | 0.00 | 52 | 1009.9 |
| 20260506105853 | 60 | 34 | 4.0 | 11.0 | 0.00 | 0.00 | 0.00 | 52 | 1009.9 |
| 20260506105352 | 60 | 46 | 3.0 | 11.0 | 0.00 | 0.00 | 0.00 | 55 | 1010.0 |
| 20260506104855 | 59 | 124 | 3.0 | 10.0 | 0.00 | 0.00 | 0.00 | 57 | 1010.0 |
| 20260506104847 | 59 | 25 | 3.0 | 10.0 | 0.00 | 0.00 | 0.00 | 59 | 1010.0 |
| 20260506104120 | 59 | 31 | 2.0 | 10.0 | 0.00 | 0.00 | 0.00 | 59 | 1009.9 |
| 20260506103355 | 59 | 114 | 2.0 | 8.0 | 0.00 | 0.00 | 0.00 | 59 | 1009.9 |
| 20260506102853 | 58 | 352 | 2.0 | 10.0 | 0.00 | 0.00 | 0.00 | 58 | 1009.9 |
| 20260506101840 | 58 | 125 | 2.0 | 7.0 | 0.00 | 0.00 | 0.00 | 57 | 1010.0 |
| 20260506101335 | 58 | 115 | 2.0 | 8.0 | 0.00 | 0.00 | 0.00 | 58 | 1009.9 |
| 20260506100830 | 58 | 32 | 3.0 | 9.0 | 0.00 | 0.00 | 0.00 | 59 | 1009.9 |
| 20260506100323 | 58 | 45 | 2.0 | 9.0 | 0.00 | 0.00 | 0.00 | 59 | 1009.9 |
| 20260506095817 | 58 | 68 | 2.0 | 10.0 | 0.00 | 0.00 | 0.00 | 58 | 1009.9 |
| 20260506095314 | 58 | 115 | 3.0 | 10.0 | 0.00 | 0.00 | 0.00 | 58 | 1009.9 |
| 20260506094805 | 58 | 54 | 3.0 | 10.0 | 0.00 | 0.00 | 0.00 | 60 | 1009.9 |
| 20260506094522 | 58 | 44 | 3.0 | 10.0 | 0.00 | 0.00 | 0.00 | 58 | 1009.9 |
| 20260506093754 | 58 | 77 | 2.0 | 11.0 | 0.00 | 0.00 | 0.00 | 57 | 1009.9 |
| 20260506093521 | 58 | 91 | 2.0 | 11.0 | 0.00 | 0.00 | 0.00 | 56 | 1009.8 |
| 20260506092741 | 58 | 153 | 2.0 | 9.0 | 0.00 | 0.00 | 0.00 | 53 | 1009.9 |
| 20260506092236 | 58 | 83 | 2.0 | 7.0 | 0.00 | 0.00 | 0.00 | 53 | 1009.9 |
| 20260506091953 | 58 | 36 | 2.0 | 8.0 | 0.00 | 0.00 | 0.00 | 52 | 1009.8 |
| 20260506091225 | 58 | 217 | 2.0 | 8.0 | 0.00 | 0.00 | 0.00 | 53 | 1009.8 |
| 20260506090716 | 58 | 78 | 2.0 | 8.0 | 0.00 | 0.00 | 0.00 | 53 | 1009.8 |
| 20260506090211 | 58 | 302 | 2.0 | 8.0 | 0.00 | 0.00 | 0.00 | 55 | 1009.7 |
| 20260506085705 | 58 | 76 | 2.0 | 10.0 | 0.00 | 0.00 | 0.00 | 53 | 1009.7 |
| 20260506085159 | 58 | 110 | 2.0 | 10.0 | 0.00 | 0.00 | 0.00 | 55 | 1009.7 |
| 20260506084920 | 58 | 38 | 2.0 | 8.0 | 0.00 | 0.00 | 0.00 | 49 | 1009.6 |
| 20260506084414 | 57 | 92 | 3.0 | 9.0 | 0.00 | 0.00 | 0.00 | 50 | 1009.6 |
| 20260506083640 | 57 | 240 | 3.0 | 10.0 | 0.00 | 0.00 | 0.00 | 50 | 1009.6 |
| 20260506083134 | 57 | 164 | 2.0 | 10.0 | 0.00 | 0.00 | 0.00 | 46 | 1009.5 |
| 20260506082630 | 57 | 55 | 2.0 | 7.0 | 0.00 | 0.00 | 0.00 | 44 | 1009.5 |
| 20260506082132 | 57 | 112 | 2.0 | 9.0 | 0.00 | 0.00 | 0.00 | 43 | 1009.6 |
| 20260506081846 | 57 | 275 | 3.0 | 9.0 | 0.00 | 0.00 | 0.00 | 43 | 1009.6 |
| 20260506081131 | 57 | 25 | 2.0 | 8.0 | 0.00 | 0.00 | 0.00 | 42 | 1009.5 |
| 20260506080900 | 56 | 101 | 2.0 | 8.0 | 0.00 | 0.00 | 0.00 | 41 | 1009.6 |
| 20260506080143 | 56 | 348 | 2.0 | 7.0 | 0.00 | 0.00 | 0.00 | 38 | 1009.5 |
| 20260506073125 | 55 | 110 | 2.0 | 6.0 | 0.00 | 0.00 | 0.00 | 22 | 1009.4 |
| 20260506072625 | 55 | 46 | 2.0 | 15.0 | 0.00 | 0.00 | 0.00 | 20 | 1009.4 |
| 20260506072122 | 55 | 233 | 2.0 | 15.0 | 0.00 | 0.00 | 0.00 | 21 | 1009.4 |
| 20260506071623 | 55 | 108 | 2.0 | 9.0 | 0.00 | 0.00 | 0.00 | 13 | 1009.3 |
| 20260506071122 | 55 | 32 | 2.0 | 9.0 | 0.00 | 0.00 | 0.00 | 10 | 1009.5 |
| 20260506070622 | 54 | 50 | 2.0 | 10.0 | 0.00 | 0.00 | 0.00 | 1 | 1009.5 |
| 20260506070124 | 54 | 142 | 2.0 | 10.0 | 0.00 | 0.00 | 0.00 | 1 | 1009.4 |
| 20260506062114 | 52 | 256 | 2.0 | 9.0 | 0.00 | 0.00 | 0.00 | 1 | 1009.1 |
| 20260506061617 | 52 | 344 | 1.0 | 9.0 | 0.00 | 0.00 | 0.00 | 1 | 1009.1 |
| 20260506061115 | 52 | 30 | 1.0 | 4.0 | 0.00 | 0.00 | 0.00 | 1 | 1009.1 |
| 20260506060616 | 52 | 70 | 1.0 | 4.0 | 0.00 | 0.00 | 0.00 | 1 | 1009.1 |
| 20260506060355 | 52 | 195 | 1.0 | 6.0 | 0.00 | 0.00 | 0.00 | 1 | 1009.0 |
| 20260506051110 | 51 | 43 | 1.0 | 5.0 | 0.00 | 0.00 | 0.00 | 1 | 1009.0 |
| 20260506050611 | 51 | 49 | 1.0 | 5.0 | 0.00 | 0.00 | 0.00 | 1 | 1009.1 |
| 20260506050124 | 51 | 6 | 1.0 | 5.0 | 0.00 | 0.00 | 0.00 | 1 | 1009.1 |
| 20260506045108 | 51 | 227 | 1.0 | 7.0 | 0.00 | 0.00 | 0.00 | 1 | 1009.2 |
| 20260506044609 | 51 | 128 | 0.0 | 4.0 | 0.00 | 0.00 | 0.00 | 1 | 1009.2 |
| 20260506044108 | 51 | 248 | 1.0 | 5.0 | 0.00 | 0.00 | 0.00 | 1 | 1009.2 |
| 20260506043611 | 51 | 123 | 1.0 | 5.0 | 0.00 | 0.00 | 0.00 | 1 | 1009.2 |
| 20260506043111 | 51 | 229 | 1.0 | 5.0 | 0.00 | 0.00 | 0.00 | 1 | 1009.2 |
| 20260506042609 | 51 | 92 | 1.0 | 7.0 | 0.00 | 0.00 | 0.00 | 1 | 1009.2 |
| 20260506042111 | 51 | 108 | 1.0 | 7.0 | 0.00 | 0.00 | 0.00 | 1 | 1009.2 |
| 20260506041609 | 51 | 89 | 1.0 | 4.0 | 0.00 | 0.00 | 0.00 | 1 | 1009.2 |
| 20260506041112 | 51 | 44 | 1.0 | 5.0 | 0.00 | 0.00 | 0.00 | 1 | 1009.2 |